Lapse_Rate
7.7 7.6 7.7 7.9 8.1 8.4 8.3 8.5 8.7 8.7 8.8 9.0 8.9 8.6 8.2 8.0 7.6 6.9 6.5 6.5 6.2 5.8
7.6 7.6 7.5 7.5 7.6 7.8 7.9 8.0 8.2 8.5 8.6 8.8 8.9 8.5 8.7 8.1 7.6 7.1 6.6 6.7 6.7 6.6
7.2 7.2 7.4 7.6 7.5 7.6 7.7 7.8 7.9 8.1 8.4 8.6 8.8 8.7 8.6 8.1 7.6 7.3 6.6 6.6 6.7 6.6
6.8 6.9 7.0 7.2 7.3 7.5 7.8 7.9 7.8 7.8 8.1 8.3 8.6 8.7 8.4 8.3 7.6 7.2 6.9 6.9 6.8 6.6
6.8 6.9 6.9 7.1 7.0 7.2 7.6 7.9 7.9 7.9 7.9 8.1 8.3 8.1 8.2 8.1 7.8 7.3 7.3 7.1 6.8 6.7
6.7 6.7 6.8 6.9 7.0 7.3 7.5 7.6 7.8 8.1 8.1 7.9 8.1 7.8 8.0 7.7 7.6 7.4 7.3 6.9 6.8 6.7
6.8 6.7 6.7 6.9 6.9 7.0 7.3 7.5 7.8 8.1 8.3 8.0 7.9 7.7 7.9 7.5 7.4 7.3 7.1 6.9 6.6 6.5
6.6 6.8 6.9 6.8 6.8 6.9 6.8 6.7 6.4 7.0 7.7 7.8 7.6 7.6 7.5 7.3 7.3 7.2 7.0 6.6 6.5 6.5
6.2 6.4 6.6 6.8 6.9 6.9 7.0 6.8 6.8 6.9 6.6 6.8 7.2 7.5 7.8 7.2 7.0 6.9 6.8 6.5 6.3 6.5
6.2 6.3 6.3 6.4 6.8 7.1 6.9 7.0 7.1 6.7 6.8 6.7 6.5 7.3 7.4 7.0 6.7 6.8 6.5 6.3 6.4 6.0
6.6 6.5 6.4 6.4 6.4 6.7 6.9 6.9 6.3 6.7 6.7 6.5 6.8 7.2 6.9 6.7 6.5 6.5 6.4 6.4 6.2 5.9
6.9 6.7 6.6 6.6 6.6 6.6 6.7 6.9 7.3 6.2 6.4 6.6 6.5 6.8 6.7 6.4 6.3 6.4 6.5 6.3 6.0 5.9
7.3 7.0 6.8 6.5 6.6 6.7 6.8 6.7 6.5 6.8 5.8 6.2 6.2 6.2 6.4 6.4 6.2 6.3 6.2 6.0 5.8 5.3
8.1 7.7 7.1 6.7 6.6 6.7 6.9 6.7 6.2 5.8 5.8 5.7 5.9 6.2 6.2 6.1 6.1 6.2 6.1 5.8 5.6 5.4
Wind_Speed
14 12 13 16 14 14 13 14 15 15 17 19 19 17 17 12 13 12 13 16 13 8
13 15 14 18 16 13 16 14 16 15 17 17 18 16 14 11 15 13 13 11 11 7
18 18 16 15 17 18 17 17 18 17 16 16 16 13 14 12 13 14 10 10 12 12
17 19 18 17 17 16 17 17 18 15 15 15 12 14 14 13 14 15 14 14 15 13
17 18 18 18 18 16 16 16 16 13 14 14 14 15 16 15 14 16 17 17 17 15
18 18 18 19 16 17 15 16 10 13 14 15 15 15 15 16 16 17 18 20 20 19
18 19 18 18 17 15 14 11 13 15 16 15 15 16 15 15 16 16 16 18 18 20
17 18 19 16 15 14 14 12 14 14 12 12 13 12 16 16 16 17 16 15 15 14
17 18 18 17 14 10 7 8 6 9 12 13 9 16 20 19 16 17 18 17 15 16
17 18 18 18 15 12 5 6 3 5 7 10 10 20 22 22 16 19 17 17 17 13
18 18 18 18 16 14 7 8 8 8 8 9 9 22 21 20 17 15 18 19 19 18
18 19 19 18 16 13 10 8 9 9 10 10 8 19 19 18 15 15 17 15 15 17
18 19 20 19 18 11 11 11 8 9 10 11 11 18 25 19 12 16 13 13 15 22
19 20 20 19 17 14 10 9 9 10 8 10 12 16 22 23 15 14 13 12 11 11
Wind_Direction
290 273 262 257 255 252 249 245 231 219 221 226 223 221 213 191 192 184 187 186 200 181
301 290 280 270 259 255 250 249 243 217 212 218 223 215 204 194 190 179 192 181 171 137
315 303 290 281 265 254 251 244 243 233 208 205 214 196 192 190 193 174 172 161 151 160
315 310 301 293 283 263 253 245 240 227 209 196 193 185 188 188 172 178 166 161 156 159
318 314 306 302 290 276 261 250 241 207 193 191 187 187 185 182 175 169 166 158 150 150
324 323 312 310 301 282 266 262 202 193 198 191 184 183 184 184 175 170 166 164 156 156
323 323 317 309 312 298 257 214 204 204 202 194 181 183 176 171 167 167 166 164 158 157
318 317 318 313 302 307 284 234 213 205 201 184 178 174 168 166 163 159 157 151 150 152
314 315 316 317 303 294 286 280 237 211 183 173 178 178 179 169 165 164 160 154 150 149
311 313 313 310 306 282 253 257 252 249 186 181 177 175 179 174 168 161 159 151 147 141
308 309 307 303 298 280 228 213 218 197 204 193 190 179 175 172 160 157 152 154 150 141
304 303 301 296 292 277 247 209 217 218 192 206 182 170 163 162 154 149 144 145 145 143
300 297 295 292 287 274 236 231 202 207 200 183 171 171 167 160 150 147 143 138 142 143
297 293 291 287 284 284 231 215 198 191 168 176 161 171 180 166 160 152 143 142 140 135